Weather in Pishnur

Russia / Kirov Oblast     57°47′31″N   47°56′43″E
temp.,
°C
wind,
m/s
gust,
m/s
humid.,
%
clouds,
%
prec.,
mm/h
press.,
hPa
HPBL,
m
11 may, tue
tue1100:00+8n389286 0.0 1026369
03:00+7n379563 0.0 1027281
06:00+8nne4690100 0.0 1028392
09:00+12nne347969 0.0 1029513
12:00+17nne34620 0.0 1029786
15:00+19nne33554 0.0 1028963
18:00+18nne24664 0.0 1028150
21:00+13ne24841 0.0 102970
12 may, wed
wed1200:00+11ne23884 0.0 103057
03:00+10ene22895 0.0 103037
06:00+13ene24755 0.0 1030139
09:00+20ene23594 0.0 1030599
12:00+24e23480 0.0 10281292
15:00+25se334361 0.0 10272316
18:00+22ese235640 0.0 102770
21:00+17se22715 0.0 102725
13 may, thu
thu1300:00+14ese2275100 0.0 102715
03:00+14ese2274100 0.0 102717
06:00+16ese247099 0.0 1027128
09:00+22se3548100 0.0 1027623
12:00+25sse47395 0.0 10252189
15:00+25sse463731 0.0 10242052
18:00+21s3856100 0.0 1024368
21:00+18sse256992 0.0 102398
14 may, fri
fri1400:00+17se3116799 0.0 1023282
03:00+15sse31074100 0.1 1022234
06:00+16sse397793 0.1 1022281
09:00+22s465186 0.1 1021674
12:00+25s563969 0.0 10201371
15:00+25ssw3543100 0.0 10201458
18:00+22sw1260100 0.0 101927
21:00+18ssw227673 0.0 101924
15 may, sat
sat1500:00+16ssw128420 0.1 101911
03:00+15sse229030 0.3 101920
06:00+18sse247939 0.0 1018164
09:00+23s46545 0.0 1017635
12:00+27s593774 0.0 10171177
15:00+28ssw5103360 0.0 10161820
18:00+25s411475 0.0 1014549
21:00+19s415605 0.0 1014467